Location: Nagoya
(35.1814°N, 136.9064°E)
Time: 07:36:02
(UTC+09:00)

Hubble Space Telescope - Visible Passes

Search period start: 01 October 2022 00:00
Search period end: 11 October 2022 00:00
Orbit: 531 x 535 km, 28.5° (Epoch: 30 September)

Date Brightness Start Highest point End Pass type
(mag) Time Alt. Az. Time Alt. Az. Time Alt. Az.
01 Oct 2.1 18:22:53 10° WSW 18:26:28 29° S 18:29:38 12° SE visible
01 Oct 3.6 20:04:26 10° WSW 20:04:52 12° SW 20:04:52 12° SW visible
02 Oct 2.3 18:10:40 10° WSW 18:14:11 28° S 18:17:41 10° SE visible
02 Oct 3.5 19:52:33 10° SW 19:53:20 12° SW 19:53:20 12° SW visible
03 Oct 2.4 17:58:27 10° WSW 18:01:51 26° S 18:05:16 10° SE visible
03 Oct 3.4 19:40:55 10° SW 19:41:51 11° SSW 19:41:51 11° SSW visible
